Resultats Cursa De Muntanya La Riera De Gaia 2017


Clasificación y resultados Cursa De Muntanya La Riera De Gaia este evento se ha celebrado el 17 dic 2017 Cursa Muntanya en la localidad de Riera de Gaià (La) sobre una distancia de 20 - 7 Km tiempos de llegada






"

Cursa Muntanya de La Riera - 20km







Lloc General Nom Categoria Lloc Catg Temps
1 ORIOL FERRE CAÑELLAS SNR M 1 01:34:01
2 SERGIO GARCIA GARCIA SNR M 2 01:34:01
3 ENRIC CABALLE ANDREU SNR M 3 01:38:01
4 ALBERT MERCADE SERRA SNR M 4 01:40:43
5 SERGI PLANAS ROMEU MTR 40 M 1 01:41:03
6 JORDI VIDAL CANALS MTR 40 M 2 01:43:23
7 BENITO MANZANARES PELAZ MTR 40 M 3 01:43:41
8 NANDO COMIN GIMENO SNR M 5 01:44:35
9 JUANMA TERRON VASCO MTR 40 M 4 01:44:53
10 ADRIA CALVET CASAJUANA SNR M 6 01:45:13
11 FRAN DOMINGUEZ VICIOSO SNR M 7 01:45:13
12 JOSE GALEANO SABATE SNR M 8 01:45:32
13 XAVIER RODRIGUEZ ANGRILL MTR 40 M 5 01:46:02
14 ARNAU BORI DOLS SNR M 9 01:47:18
15 JOSEP M. REBULL FERRAN MTR 40 M 6 01:47:34
16 ANTONI PONS LLAURADO MTR 40 M 7 01:51:23
17 XAVIER SUMOY BATET SNR M 10 01:51:59
18 JORGE HERNANDEZ SANTIAGO SNR M 11 01:51:59
19 KATHERINE JANE CHAPLIN SCOTT SNR F 1 01:52:46
20 ROBERT MEEK MTR 50 M 1 01:53:05
21 DANIEL TOMAS TORNE MTR 40 M 8 01:53:15
22 ADAM NUÑEZ RECASENS SNR M 12 01:54:12
23 MANUEL CRESPO BLASCO MTR 40 M 9 01:54:25
24 DAVID VIVES VERNET MTR 40 M 10 01:54:30
25 JOSEP MARIA ROIGE SANS MTR 50 M 2 01:54:47
26 JOAQUIN SALGUERO MARTIN MTR 40 M 11 01:54:47
27 EDGAR ROS FERRER SNR M 13 01:54:52
28 MIQUEL ROMAN SANCHO SNR M 14 01:55:19
29 LLUIS GIL LLUIS SNR M 15 01:55:40
30 XAVIER RUIZ EDO SNR M 16 01:55:40
31 HECTOR MARGALEF CASADO MTR 40 M 12 01:57:37
32 FRANCISCO CASTILLO GALINDO SNR M 17 01:58:05
33 JOSEP MARIA MEDINA MESTRES MTR 40 M 13 01:58:06
34 SERGI BAIGES SOTO MTR 40 M 14 01:58:27
35 MAGDALA NAVARRO DIEZ MTR 40 F 1 01:58:35
36 RAMON FERRE PLANA MTR 50 M 3 01:58:41
37 ADRIA REVELLES PI SNR M 18 01:58:52
38 ANTONI SAMPER GOLORONS MTR 40 M 15 01:59:07
39 JAVIER MARTINEZ MOLINA MTR 40 M 16 01:59:07
40 IVAN LOPEZ DOMENECH SNR M 19 01:59:17
41 DAVID VIDAL DOMENECH MTR 40 M 17 01:59:23
42 CARLOS PUEYO GIL MTR 50 M 4 01:59:57
43 GREGORIO BAREA SILVA MTR 40 M 18 02:00:26
44 RAUL GOMEZ INSA MTR 40 M 19 02:00:39
45 ALEX DE SIMON BALSELLS SNR M 20 02:00:44
46 VANESSA GARCIA BARRIOS MTR 40 F 2 02:00:49
47 AITOR ESCAURIAZA FRANCO MTR 40 M 20 02:01:06
48 SERGIO CABELLO BONAL SNR M 21 02:01:21
49 SERGIO PEREZ MARTINEZ MTR 40 M 21 02:01:43
50 JOAN CARLES TORRES LLOBERA SNR M 22 02:01:45
51 VICTOR MANUEL PERALBO JURADO MTR 40 M 22 02:02:10
52 JOAN BERGA JORQUERA SNR M 23 02:02:25
53 TOMAS FABREGAT ANGLES MTR 50 M 5 02:04:18
54 RAFA ARANEGA AGUILAR MTR 40 M 23 02:04:50
55 JOSEP SANS SOLSONA MTR 50 M 6 02:05:13
56 ANAIS CRESPO MILANI SNR F 2 02:05:23
57 PAQUITA GIMENEZ ROIG MTR 50 F 1 02:05:35
58 ABEL ROVIRA ALVAREZ SNR M 24 02:05:41
59 JOAN RAMON PEDRET ROCA MTR 40 M 24 02:06:05
60 MARCO TANCO NAVARRO MTR 40 M 25 02:06:34
61 LLUIS ESTEBAN CASTANERA MTR 50 M 7 02:06:35
62 JOSE ANTONIO CARRASCO JIMENEZ MTR 40 M 26 02:06:52
63 JOSE CASTILLO GALINDO MTR 40 M 27 02:06:57
64 VICTOR GONZALEZ CORBACHO SNR M 25 02:06:59
65 JUANA ADAN GARCIA MTR 50 F 2 02:07:00
66 PEDRO SANCHEZ PINO MTR 40 M 28 02:07:25
67 CARLES LLORACH RIUS MTR 40 M 29 02:07:52
68 CARLOS MORENO SANTACANA MTR 40 M 30 02:08:24
69 JORDI GIRONA TARRAGO MTR 40 M 31 02:08:36
70 SERGIO CORRAS BURKHARDT SNR M 26 02:08:49
71 JUAN ANTONIO DE LA PEÑA MANJON SNR M 27 02:08:50
72 FERRAN SALADIE MENDEZ MTR 40 M 32 02:09:01
73 ANA SCOTT-TENNENT DE RIVAS SNR F 3 02:09:04
74 SERGIO PERALTA MUÑOZ SNR M 28 02:09:04
75 JORDI MONTOLIU ALBET MTR 40 M 33 02:10:01
76 NURIA PEGUEROLES CLEMENTE SNR F 4 02:11:03
77 JUAN FRANCISCO COBO LERENA MTR 40 M 34 02:11:42
78 PAU SUMOY NAVARRO MTR 40 M 35 02:11:49
79 JORDI CONESA MATHIOUX MTR 40 M 36 02:12:03
80 ALICIA DOMINGO MASDEU MTR 40 F 3 02:12:26
81 JESUS JIMENEZ ARALL MTR 40 M 37 02:13:32
82 SANTI MARTIN CERVERA SNR M 29 02:13:32
83 VICENTE SERRANO GONZALVO MTR 40 M 38 02:14:11
84 MARTA CASARES SANTIAGO MTR 40 F 4 02:14:44
85 JOAN MIQUEL MESTRE JANE MTR 40 M 39 02:14:45
86 NURIA PAGES ROBERT MTR 40 F 5 02:15:00
87 SALVADOR SERRAMIA FERNANDEZ MTR 50 M 8 02:16:00
88 JOSEP MARIA ESTELRICH BARCELO MTR 40 M 40 02:16:01
89 JORDI BADIA SERRANO MTR 40 M 41 02:17:11
90 RAMON MARTI VELASCO MTR 40 M 42 02:17:49
91 JORDI MITJAVILA I MOIX MTR 40 M 43 02:18:13
92 JOSE CARNERERO LINARES MTR 40 M 44 02:18:57
93 ELOI GIMENEZ RESPALL MTR 40 M 45 02:20:07
94 RICARD BENAVENTE CUGAT SNR M 30 02:20:38
95 JOSE MARIA PASCUAL RAMIREZ MTR 40 M 46 02:20:43
96 OSCAR MARTINEZ MOLINA MTR 40 M 47 02:21:35
97 GABRIEL MUÑOZ MARTINEZ MTR 40 M 48 02:21:45
98 LLUIS PEREZ ROSSELL SNR M 31 02:26:35
99 OLGA DEL RIO SANCHEZ SNR F 5 02:26:45
100 ANDRES LUQUE CORPAS MTR 50 M 9 02:27:43
101 PEP RIBA ALSINA MTR 40 M 49 02:27:56
102 XAVIER SASTRIQUES SICART MTR 40 M 50 02:27:58
103 JOSEP FORTUNY GUASCH MTR 50 M 10 02:30:28
104 JOSEP MARIA RIUS GARCIA SNR M 32 02:30:31
105 JOAN CLAVERIA BARO SNR M 33 02:30:31
106 SARA RIUS GARCIA SNR F 6 02:30:32
107 FRANCISCO GARCIA SAYAGO MTR 50 M 11 02:31:03
108 MANEL MARCAL ROIG MTR 50 M 12 02:31:04
109 ALEX MESTRE PEROLADA MTR 40 M 51 02:31:08
110 ORIOL FERNANDEZ ABAD MTR 40 M 52 02:33:16
111 BELEN HERRERA SUAREZ MTR 40 F 6 02:38:52
112 FERNANDO HUIDOBRO MENCIO MTR 50 M 13 02:38:53
113 JESSICA DEL MARCO PEREZ SNR F 7 02:38:55
114 JAUME RUBIO MATA MTR 40 M 53 02:43:14
115 SANDRA ANTILLER NUÑEZ SNR F 8 02:47:48
116 EDGAR MAGRANE VELASCO SNR M 34 02:47:49
117 JUAN MAGAÑA HURTADO SNR M 35 02:47:50
118 QUICO BERENGUER JOFRESA MTR 40 M 54 02:50:25
119 CARLOS BRAVO MASGORET MTR 50 M 14 02:50:28
120 RAFA PEREZ GUTIERREZ MTR 40 M 55 02:50:29
121 ANTON MORELL OSET MTR 40 M 56 02:51:05
122 MANEL SAMBONETE GONZALEZ MTR 40 M 57 03:01:39
123 SONIA ROSA PEREZ MTR 40 F 7 03:44:37
124 JORDI BOSCH MARTORELL MTR 40 M 58 03:44:38
125 VICTORIA GARCIA MASIP MTR 40 F 8 03:44:45





Cursa Muntanya de La Riera - 7km







Lloc General Nom Categoria Lloc Catg Temps
1 OTMANE BTAIMI SNR M 1 00:24:04
2 ABDEL EL HAJI EL HAJI SNR M 2 00:24:14
3 ISAAC SALVAT FARGAS SNR M 3 00:26:32
4 MANUEL TORRES ALCAZAR MTR 40 M 1 00:27:44
5 ANDRES SANCHEZ GEA SNR M 4 00:28:03
6 JOSE MIRA MOLINA SNR M 5 00:28:27
7 DOMINGO GARCIA REDONDO MTR 40 M 2 00:28:32
8 ILLAN TOMAS GREGORIO SNR M 6 00:29:05
9 ADRIANO SANTAELLA CARRASCO MTR 50 M 1 00:29:40
10 ALBERT MARTI FERRAN MTR 40 M 3 00:29:42
11 ANTONIO MIRO ANDREU MTR 50 M 2 00:30:02
12 JOSE LUIS CASADO CASTAÑO MTR 40 M 4 00:30:06
13 ESTER CASAJUANA REYES SNR F 1 00:30:36
14 PEDRO GUTIERREZ POZO MTR 40 M 5 00:30:37
15 AQUILINO BERDEJO LAZARO MTR 50 M 3 00:31:30
16 RICARD GARCIA VALLS MTR 50 M 4 00:31:58
17 PEP RECASENS BILBAO MTR 40 M 6 00:31:58
18 ABEL VIDAL RUEDAS SNR M 7 00:32:32
19 VICENS AREVALO DOMENECH MTR 40 M 7 00:32:40
20 JAUME FERRE VIDAL MTR 50 M 5 00:32:42
21 FELIX HERNANDO MIR SNR M 8 00:33:05
22 JAUME NAT SAPERAS SNR M 9 00:33:17
23 FRANCO MARTINIELLO MTR 50 M 6 00:34:15
24 JOAN PALAZON SANGRA SNR M 10 00:34:18
25 JORDI SEDO MONELLS MTR 40 M 8 00:34:28
26 SANDRA GIMENO VILA MTR 40 F 1 00:34:30
27 ELOI GIRONA ROVIRA SNR M 11 00:34:33
28 DANI JIMENEZ BRANERA SNR M 12 00:35:03
29 JORDI MOLINA VALVERDE MTR 40 M 9 00:35:18
30 JORDI GUINOVART MARIMON SNR M 13 00:35:23
31 ANNA VILA ROVIRA SNR F 2 00:35:24
32 JORDI BACH PUIG MTR 40 M 10 00:35:31
33 JOSE MANUEL CARMEN RAMIREZ MTR 40 M 11 00:35:59
34 RAMON TORTAJADA TERUEL MTR 50 M 7 00:36:06
35 MARC MARGALEF VECIANA SNR M 14 00:36:14
36 MYLES NASH SNR M 15 00:36:23
37 ELENA GUIJO MORAGA SNR F 3 00:36:59
38 NURIA RIBAS RECASENS SNR F 4 00:37:08
39 JOAQUIM RAFI MEMBRADO SNR M 16 00:37:12
40 ARSENIO ALONSO ORTEGA MTR 40 M 12 00:37:35
41 FRANCISCO JAVIER ABAJO ARROYO SNR M 17 00:37:42
42 JOSEP ROIG VENDRELL MTR 50 M 8 00:37:45
43 GAEL NUÑEZ JULIAN SNR M 18 00:37:56
44 CARMELO MIERES PEREIRA SNR M 19 00:37:59
45 MARCOS PEREZ MARIN SNR M 20 00:38:00
46 OLGA RION SEGARRA SNR F 5 00:38:13
47 BELEN CAMPOR ALEGRE MTR 50 F 1 00:38:31
48 JAUME MORON BOSCA MTR 50 M 9 00:38:42
49 JAVIER PALLARES COLL MTR 50 M 10 00:38:46
50 ARANTXA ABILLAR ENJUANES MTR 40 F 2 00:38:47
51 TONI ADZERIAS SAPERAS MTR 50 M 11 00:39:02
52 JOAN ROVIRA BORONAT MTR 40 M 13 00:39:10
53 PACO ABAJO NAVARRO SNR M 21 00:39:16
54 ALEXIS PADILLO RODRIGUEZ SNR M 22 00:39:24
55 MARTI NAVASCUEZ PRAT SNR M 23 00:39:32
56 JONI PRAT PONS SNR M 24 00:39:39
57 CAROLINE MEEK MTR 40 F 3 00:39:46
58 MARIA FERNANDEZ VELASCO SNR F 6 00:39:54
59 GEMMA GRAU PLA SNR F 7 00:39:55
60 MARIA ZATOR WOLNIK SNR F 8 00:40:02
61 JOAN RAMON TORRES CAMOS MTR 50 M 12 00:40:05
62 MAITE GRAU SALAS MTR 50 F 2 00:40:08
63 DANIEL PASTOR NAVARRO MTR 40 M 14 00:40:22
64 ENCARNI SERRANO GRANADOS MTR 40 F 4 00:40:23
65 ABDELILAH MIR ALI SNR M 25 00:40:27
66 EVA REDONDO POSTIGO MTR 40 F 5 00:40:34
67 MARTA GARCIA FARRAN SNR F 9 00:40:41
68 SILVIA PINEL JIMENEZ SNR F 10 00:41:16
69 PACO SOLIS FUENTES MTR 50 M 13 00:41:36
70 SARA GARCIA VELADO MTR 50 F 3 00:41:39
71 ADINA URSU SNR F 11 00:41:44
72 JOSEP MARIA FOLCH RUIZ MTR 50 M 14 00:41:49
73 CHANTAL TORREJON VIDAL SNR F 12 00:42:02
74 LIDIA RUIZ MORA SNR F 13 00:42:18
75 JOAN MARTIN TORRES MTR 40 M 15 00:42:26
76 MAROUANE JEBARI SEBBAHI SNR M 26 00:42:40
77 PEP AYLLON HERNANDEZ MTR 50 M 15 00:42:59
78 JORDI JANE RAVENTOS MTR 40 M 16 00:43:10
79 MARTA OLMOS MARGOL MTR 40 F 6 00:43:14
80 JULIO ENRIQUE BARRAU GRACIA-ZATORRE MTR 50 M 16 00:43:20
81 CARME CHAMORRO ALABAU MTR 50 F 4 00:43:22
82 JOSEP ZAMORA JUANPERE MTR 50 M 17 00:43:37
83 SONIA CREMADES GARCIA SNR F 14 00:43:38
84 RICARDO LOSA BEGUE SNR M 27 00:43:51
85 XAVIER BRU BUDESCA MTR 40 M 17 00:43:56
86 IVAN BENITO FUSTER SNR M 28 00:44:03
87 GERARD LLORENS PIÑOL MTR 40 M 18 00:44:08
88 JOSE MANUEL GAMEZ ASENSIO MTR 40 M 19 00:44:19
89 JUDIT VIRGILI PARREU SNR F 15 00:44:38
90 CARME MARTINEZ PAEZ MTR 50 F 5 00:44:44
91 YOLANDA TORRES RIOL MTR 40 F 7 00:44:51
92 ELISABETH NOGUERA DOMINGUEZ MTR 40 F 8 00:45:09
93 ROSA GIMENO VILA SNR F 16 00:45:19
94 RAQUEL PIÑAS CHAMORRO SNR F 17 00:45:29
95 CRISTINA GONZALEZ AVIA SNR F 18 00:45:35
96 MARTA VERNET SUMALLA SNR F 19 00:45:38
97 MARC VIDAL ANDREU SNR M 29 00:45:39
98 AUREA PALMA CABRE MTR 40 F 9 00:45:45
99 MARGA JIMENEZ ALVAREZ MTR 40 F 10 00:45:54
100 SANTI BERTRAN . MTR 40 M 20 00:45:56
101 OLEGUER SERRANO SENTIS SNR M 30 00:46:00
102 DANI SERRANO SANCHEZ MTR 40 M 21 00:46:05
103 ELENA VILLACAMPA DIAZ SNR F 20 00:46:18
104 AINA GUTIERREZ BRAVO SNR F 21 00:46:26
105 MANUEL CANTOS ALARCON MTR 50 M 18 00:46:47
106 NATALIA BATET MARTI MTR 40 F 11 00:46:52
107 GLORIA CABEZAS MORENO MTR 40 F 12 00:48:01
108 LUCAS SUPERSAXCO MACIA MTR 40 M 22 00:48:04
109 EMILIO SUPERSAXCO FRANCES SNR M 31 00:48:05
110 ELISA MIQUEL CRUZ MTR 40 F 13 00:48:18
111 IVETT GUTIERREZ SANCHEZ SNR F 22 00:48:26
112 FRANCISCO PACHECO JIMENEZ MTR 50 M 19 00:48:54
113 ANGELES AMADOR GARRANCHO MTR 50 F 6 00:48:55
114 MARJORIE ROJAS ARENAS MTR 40 F 14 00:49:30
115 VERONICA GRANADOS PERSON SNR F 23 00:50:22
116 ESTHER SAGUES MUÑOZ SNR F 24 00:52:07
117 LOURDES PORRAS SANMARTI SNR F 25 00:58:46
118 JORDI AMAYA BARBE SNR M 32 00:58:48
119 YAMI BARRETO BLANCO MTR 40 F 15 01:00:28
120 JOSE MARIA GUTIERREZ JIMENEZ MTR 50 M 20 01:00:29
121 JOSEP ADMETLLA MASERAS MTR 50 M 21 01:12:05
122 CARME CARTANYA PALAU MTR 50 F 7 01:31:14

0 comentarios :

Publicar un comentario